| time (UTC) | temp F | wind direction | speed MPH | gust MPH | rain 1hr in | rain 24hr in | rain mn in | humidity % | barometer mb |
| 20260502162937 | 55 | 137 | 3.0 | 3.0 | 0.00 | 0.00 | 0.00 | 49 | 1015.6 |
| 20260502162434 | 55 | 340 | 4.0 | 4.0 | 0.00 | 0.00 | 0.00 | 49 | 1015.7 |
| 20260502161931 | 55 | 107 | 2.0 | 4.0 | 0.00 | 0.00 | 0.00 | 49 | 1015.5 |
| 20260502161427 | 55 | 271 | 0.0 | 4.0 | 0.00 | 0.00 | 0.00 | 51 | 1015.7 |
| 20260502160925 | 55 | 293 | 3.0 | 4.0 | 0.00 | 0.00 | 0.00 | 50 | 1015.9 |
| 20260502160423 | 55 | 290 | 0.0 | 4.0 | 0.00 | 0.00 | 0.00 | 51 | 1015.6 |
| 20260502151855 | 54 | 327 | 2.0 | 6.0 | 0.00 | 0.00 | 0.00 | 54 | 1015.8 |
| 20260502151351 | 54 | 156 | 0.0 | 3.0 | 0.00 | 0.00 | 0.00 | 53 | 1015.8 |
| 20260502150849 | 54 | 316 | 0.0 | 4.0 | 0.00 | 0.00 | 0.00 | 54 | 1015.8 |
| 20260502150345 | 54 | 89 | 0.0 | 3.0 | 0.00 | 0.00 | 0.00 | 55 | 1015.8 |
| 20260502130734 | 52 | 331 | 2.0 | 3.0 | 0.00 | 0.00 | 0.00 | 67 | 1015.4 |
| 20260502130231 | 52 | 329 | 0.0 | 3.0 | 0.00 | 0.00 | 0.00 | 69 | 1015.4 |
| 20260502123717 | 52 | 320 | 2.0 | 2.0 | 0.00 | 0.00 | 0.00 | 71 | 1015.1 |
| 20260502123214 | 52 | 155 | 2.0 | 3.0 | 0.00 | 0.00 | 0.00 | 71 | 1014.8 |
| 20260502122710 | 52 | 336 | 2.0 | 3.0 | 0.00 | 0.00 | 0.00 | 73 | 1015.0 |
| 20260502122207 | 52 | 18 | 1.0 | 2.0 | 0.00 | 0.00 | 0.00 | 75 | 1014.9 |
| 20260502121705 | 51 | 22 | 1.0 | 3.0 | 0.00 | 0.00 | 0.00 | 76 | 1015.0 |
| 20260502121203 | 51 | 318 | 0.0 | 2.0 | 0.00 | 0.00 | 0.00 | 76 | 1015.0 |
| 20260502120659 | 51 | 49 | 0.0 | 4.0 | 0.00 | 0.00 | 0.00 | 76 | 1014.7 |
| 20260502120156 | 51 | 341 | 0.0 | 2.0 | 0.00 | 0.00 | 0.00 | 77 | 1014.8 |
| 20260502115654 | 51 | 35 | 0.0 | 2.0 | 0.00 | 0.00 | 0.00 | 78 | 1014.7 |
| 20260502115149 | 51 | 133 | 0.0 | 2.0 | 0.00 | 0.00 | 0.00 | 78 | 1014.9 |
| 20260502114646 | 51 | 63 | 1.0 | 3.0 | 0.00 | 0.00 | 0.00 | 78 | 1015.0 |
| 20260502114143 | 51 | 91 | 3.0 | 4.0 | 0.00 | 0.00 | 0.00 | 79 | 1014.8 |
| 20260502113640 | 51 | 202 | 1.0 | 5.0 | 0.00 | 0.00 | 0.00 | 80 | 1014.9 |
| 20260502113138 | 51 | 121 | 2.0 | 2.0 | 0.00 | 0.00 | 0.00 | 81 | 1014.8 |
| 20260502112636 | 51 | 43 | 2.0 | 3.0 | 0.00 | 0.00 | 0.00 | 81 | 1014.8 |
| 20260502112133 | 51 | 349 | 0.0 | 3.0 | 0.00 | 0.00 | 0.00 | 81 | 1014.8 |
| 20260502111631 | 51 | 64 | 0.0 | 2.0 | 0.00 | 0.00 | 0.00 | 81 | 1014.8 |
| 20260502111128 | 51 | 342 | 0.0 | 2.0 | 0.00 | 0.00 | 0.00 | 81 | 1014.7 |
| 20260502110626 | 51 | 30 | 1.0 | 4.0 | 0.00 | 0.00 | 0.00 | 80 | 1014.9 |
| 20260502110123 | 51 | 341 | 1.0 | 3.0 | 0.00 | 0.00 | 0.00 | 80 | 1014.8 |
| 20260502105620 | 51 | 38 | 0.0 | 3.0 | 0.00 | 0.00 | 0.00 | 81 | 1014.8 |
| 20260502105117 | 51 | 345 | 1.0 | 2.0 | 0.00 | 0.00 | 0.00 | 81 | 1014.8 |
| 20260502104614 | 51 | 6 | 1.0 | 2.0 | 0.00 | 0.00 | 0.00 | 81 | 1014.7 |
| 20260502104112 | 50 | 49 | 1.0 | 2.0 | 0.00 | 0.00 | 0.00 | 82 | 1014.7 |
| 20260502103609 | 50 | 104 | 0.0 | 2.0 | 0.00 | 0.00 | 0.00 | 82 | 1014.6 |
| 20260502103108 | 50 | 122 | 0.0 | 2.0 | 0.00 | 0.00 | 0.00 | 83 | 1014.8 |
| 20260502102604 | 50 | 131 | 0.0 | 2.0 | 0.00 | 0.00 | 0.00 | 83 | 1014.6 |
| 20260502102101 | 50 | 17 | 0.0 | 2.0 | 0.00 | 0.00 | 0.00 | 83 | 1014.6 |
| 20260502101559 | 50 | 0 | 2.0 | 2.0 | 0.00 | 0.00 | 0.00 | 83 | 1014.4 |
| 20260502101057 | 50 | 50 | 1.0 | 2.0 | 0.00 | 0.00 | 0.00 | 83 | 1014.4 |
| 20260502100555 | 50 | 47 | 1.0 | 2.0 | 0.00 | 0.00 | 0.00 | 83 | 1014.2 |
| 20260502091529 | 50 | 343 | 0.0 | 2.0 | 0.00 | 0.00 | 0.00 | 84 | 1014.0 |
| 20260502091027 | 50 | 345 | 1.0 | 2.0 | 0.00 | 0.00 | 0.00 | 85 | 1014.0 |
| 20260502090524 | 51 | 347 | 0.0 | 2.0 | 0.00 | 0.00 | 0.00 | 85 | 1014.2 |
| 20260502071418 | 51 | 327 | 0.0 | 1.0 | 0.00 | 0.00 | 0.00 | 85 | 1013.4 |
| 20260502070916 | 51 | 10 | 1.0 | 2.0 | 0.00 | 0.00 | 0.00 | 85 | 1013.4 |
| 20260502070414 | 51 | 12 | 0.0 | 1.0 | 0.00 | 0.00 | 0.00 | 85 | 1013.5 |
| 20260502065912 | 52 | 28 | 1.0 | 2.0 | 0.00 | 0.00 | 0.00 | 84 | 1013.4 |
| 20260502065410 | 52 | 23 | 0.0 | 1.0 | 0.00 | 0.00 | 0.00 | 84 | 1013.7 |
| 20260502064908 | 52 | 51 | 0.0 | 2.0 | 0.00 | 0.00 | 0.00 | 84 | 1013.6 |
| 20260502064406 | 52 | 30 | 2.0 | 2.0 | 0.00 | 0.00 | 0.00 | 83 | 1013.6 |
| 20260502063903 | 52 | 10 | 0.0 | 0.0 | 0.00 | 0.00 | 0.00 | 83 | 1013.5 |
| 20260502063400 | 52 | 11 | 0.0 | 2.0 | 0.00 | 0.00 | 0.00 | 83 | 1013.5 |
| 20260502062857 | 52 | 25 | 0.0 | 1.0 | 0.00 | 0.00 | 0.00 | 82 | 1013.4 |
| 20260502062355 | 52 | 32 | 0.0 | 1.0 | 0.00 | 0.00 | 0.00 | 82 | 1013.5 |
| 20260502061854 | 53 | 66 | 0.0 | 1.0 | 0.00 | 0.00 | 0.00 | 81 | 1013.7 |
| 20260502061351 | 53 | 67 | 2.0 | 2.0 | 0.00 | 0.00 | 0.00 | 81 | 1013.6 |
| 20260502060847 | 53 | 32 | 0.0 | 1.0 | 0.00 | 0.00 | 0.00 | 80 | 1013.7 |
| 20260502060342 | 53 | 25 | 0.0 | 2.0 | 0.00 | 0.00 | 0.00 | 80 | 1013.8 |
| 20260502055840 | 54 | 132 | 0.0 | 1.0 | 0.00 | 0.00 | 0.00 | 79 | 1013.9 |
| 20260502055338 | 54 | 143 | 0.0 | 1.0 | 0.00 | 0.00 | 0.00 | 79 | 1013.9 |
| 20260502054837 | 54 | 57 | 0.0 | 0.0 | 0.00 | 0.00 | 0.00 | 78 | 1013.9 |
| 20260502054334 | 54 | 150 | 0.0 | 1.0 | 0.00 | 0.00 | 0.00 | 78 | 1014.1 |
| 20260502053831 | 55 | 312 | 0.0 | 1.0 | 0.00 | 0.00 | 0.00 | 78 | 1013.9 |
| 20260502053328 | 55 | 357 | 1.0 | 2.0 | 0.00 | 0.00 | 0.00 | 77 | 1014.0 |
| 20260502052826 | 55 | 19 | 1.0 | 2.0 | 0.00 | 0.00 | 0.00 | 77 | 1013.6 |
| 20260502052324 | 55 | 253 | 1.0 | 2.0 | 0.00 | 0.00 | 0.00 | 76 | 1013.5 |
| 20260502051821 | 55 | 243 | 2.0 | 2.0 | 0.00 | 0.00 | 0.00 | 76 | 1013.7 |
| 20260502051320 | 55 | 221 | 2.0 | 3.0 | 0.00 | 0.00 | 0.00 | 76 | 1013.7 |
| 20260502050816 | 55 | 157 | 0.0 | 2.0 | 0.00 | 0.00 | 0.00 | 76 | 1013.8 |
| 20260502050312 | 55 | 211 | 0.0 | 2.0 | 0.00 | 0.00 | 0.00 | 76 | 1013.9 |
| 20260502045810 | 55 | 323 | 1.0 | 2.0 | 0.00 | 0.00 | 0.00 | 76 | 1013.6 |
| 20260502045306 | 55 | 218 | 3.0 | 3.0 | 0.00 | 0.00 | 0.00 | 75 | 1013.7 |
| 20260502044804 | 55 | 198 | 0.0 | 2.0 | 0.00 | 0.00 | 0.00 | 75 | 1013.6 |
| 20260502044259 | 55 | 297 | 0.0 | 2.0 | 0.00 | 0.00 | 0.00 | 75 | 1013.8 |
| 20260502043757 | 55 | 242 | 0.0 | 3.0 | 0.00 | 0.00 | 0.00 | 75 | 1013.8 |
| 20260502043254 | 56 | 106 | 1.0 | 3.0 | 0.00 | 0.00 | 0.00 | 74 | 1013.8 |
| 20260502042753 | 56 | 142 | 0.0 | 3.0 | 0.00 | 0.00 | 0.00 | 74 | 1013.9 |
| 20260502042251 | 56 | 239 | 2.0 | 2.0 | 0.00 | 0.00 | 0.00 | 74 | 1013.9 |
| 20260502041749 | 56 | 162 | 2.0 | 2.0 | 0.00 | 0.00 | 0.00 | 74 | 1013.7 |
| 20260502041246 | 56 | 190 | 2.0 | 3.0 | 0.00 | 0.00 | 0.00 | 73 | 1013.8 |
| 20260502040743 | 56 | 44 | 0.0 | 5.0 | 0.00 | 0.00 | 0.00 | 73 | 1013.9 |
| 20260502040239 | 56 | 167 | 0.0 | 2.0 | 0.00 | 0.00 | 0.00 | 72 | 1013.7 |
| 20260502035735 | 57 | 252 | 2.0 | 5.0 | 0.00 | 0.00 | 0.00 | 72 | 1013.7 |
| 20260502035232 | 57 | 29 | 0.0 | 2.0 | 0.00 | 0.00 | 0.00 | 72 | 1013.9 |
| 20260502034730 | 57 | 140 | 0.0 | 3.0 | 0.00 | 0.00 | 0.00 | 71 | 1013.8 |
| 20260502034228 | 57 | 256 | 0.0 | 3.0 | 0.00 | 0.00 | 0.00 | 70 | 1013.7 |
| 20260502033726 | 57 | 164 | 2.0 | 3.0 | 0.00 | 0.00 | 0.00 | 69 | 1013.7 |
| 20260502033223 | 57 | 160 | 3.0 | 4.0 | 0.00 | 0.00 | 0.00 | 69 | 1013.7 |
| 20260502032720 | 57 | 142 | 2.0 | 3.0 | 0.00 | 0.00 | 0.00 | 68 | 1013.6 |
| 20260502032215 | 58 | 154 | 2.0 | 3.0 | 0.00 | 0.00 | 0.00 | 67 | 1013.5 |
| 20260502031714 | 57 | 132 | 2.0 | 2.0 | 0.00 | 0.00 | 0.00 | 67 | 1013.6 |
| 20260502031212 | 58 | 137 | 1.0 | 2.0 | 0.00 | 0.00 | 0.00 | 67 | 1013.2 |
| 20260502030710 | 58 | 246 | 0.0 | 2.0 | 0.00 | 0.00 | 0.00 | 66 | 1013.5 |
| 20260502030208 | 58 | 331 | 0.0 | 2.0 | 0.00 | 0.00 | 0.00 | 66 | 1013.4 |
| 20260502025704 | 58 | 183 | 2.0 | 2.0 | 0.00 | 0.00 | 0.00 | 65 | 1013.2 |
| 20260502025202 | 58 | 180 | 2.0 | 4.0 | 0.00 | 0.00 | 0.00 | 64 | 1013.2 |
| 20260502024700 | 58 | 100 | 0.0 | 3.0 | 0.00 | 0.00 | 0.00 | 64 | 1013.2 |
| 20260502024158 | 58 | 144 | 0.0 | 2.0 | 0.00 | 0.00 | 0.00 | 64 | 1013.3 |
| 20260502023656 | 59 | 330 | 2.0 | 2.0 | 0.00 | 0.00 | 0.00 | 63 | 1013.3 |
| 20260502023153 | 59 | 214 | 1.0 | 4.0 | 0.00 | 0.00 | 0.00 | 62 | 1013.4 |
| 20260502022650 | 59 | 213 | 2.0 | 3.0 | 0.00 | 0.00 | 0.00 | 62 | 1013.1 |
| 20260502022147 | 59 | 222 | 2.0 | 7.0 | 0.00 | 0.00 | 0.00 | 61 | 1013.3 |
| 20260502021644 | 59 | 131 | 2.0 | 4.0 | 0.00 | 0.00 | 0.00 | 60 | 1013.5 |
| 20260502021141 | 60 | 235 | 0.0 | 4.0 | 0.00 | 0.00 | 0.00 | 60 | 1013.3 |
| 20260502020638 | 60 | 249 | 2.0 | 2.0 | 0.00 | 0.00 | 0.00 | 58 | 1013.3 |
| 20260502020135 | 60 | 208 | 4.0 | 4.0 | 0.00 | 0.00 | 0.00 | 58 | 1013.4 |
| 20260502015633 | 60 | 244 | 1.0 | 3.0 | 0.00 | 0.00 | 0.00 | 57 | 1013.4 |
| 20260502015129 | 60 | 226 | 1.0 | 2.0 | 0.00 | 0.00 | 0.00 | 56 | 1013.2 |
| 20260502014627 | 60 | 281 | 1.0 | 3.0 | 0.00 | 0.00 | 0.00 | 56 | 1013.2 |
| 20260502014124 | 60 | 262 | 0.0 | 2.0 | 0.00 | 0.00 | 0.00 | 56 | 1013.1 |
| 20260502013620 | 60 | 216 | 1.0 | 2.0 | 0.00 | 0.00 | 0.00 | 55 | 1012.9 |
| 20260502013115 | 60 | 212 | 0.0 | 4.0 | 0.00 | 0.00 | 0.00 | 54 | 1013.2 |
| 20260502012613 | 60 | 160 | 1.0 | 3.0 | 0.00 | 0.00 | 0.00 | 54 | 1013.0 |
| 20260502012111 | 60 | 313 | 0.0 | 2.0 | 0.00 | 0.00 | 0.00 | 54 | 1013.0 |
| 20260502011607 | 60 | 222 | 1.0 | 3.0 | 0.00 | 0.00 | 0.00 | 52 | 1012.8 |
| 20260502011103 | 61 | 269 | 0.0 | 2.0 | 0.00 | 0.00 | 0.00 | 52 | 1012.7 |
| 20260502010601 | 61 | 121 | 1.0 | 4.0 | 0.00 | 0.00 | 0.00 | 51 | 1012.6 |
| 20260502010057 | 61 | 242 | 0.0 | 4.0 | 0.00 | 0.00 | 0.00 | 50 | 1012.5 |
| 20260502005555 | 61 | 235 | 1.0 | 3.0 | 0.00 | 0.00 | 0.00 | 50 | 1012.7 |
| 20260502005052 | 61 | 182 | 2.0 | 3.0 | 0.00 | 0.00 | 0.00 | 49 | 1012.6 |
| 20260502004548 | 61 | 50 | 0.0 | 2.0 | 0.00 | 0.00 | 0.00 | 49 | 1012.6 |
| 20260502004045 | 62 | 236 | 0.0 | 2.0 | 0.00 | 0.00 | 0.00 | 48 | 1012.4 |
| 20260502003543 | 62 | 214 | 2.0 | 2.0 | 0.00 | 0.00 | 0.00 | 47 | 1012.3 |
| 20260502003039 | 62 | 189 | 1.0 | 2.0 | 0.00 | 0.00 | 0.00 | 47 | 1012.1 |
| 20260502002536 | 62 | 281 | 0.0 | 3.0 | 0.00 | 0.00 | 0.00 | 46 | 1012.2 |
| 20260502002033 | 63 | 247 | 2.0 | 3.0 | 0.00 | 0.00 | 0.00 | 46 | 1012.0 |
| 20260502001531 | 63 | 265 | 1.0 | 2.0 | 0.00 | 0.00 | 0.00 | 46 | 1012.2 |
| 20260502001028 | 63 | 249 | 0.0 | 4.0 | 0.00 | 0.00 | 0.00 | 46 | 1012.2 |
| 20260502000526 | 63 | 217 | 1.0 | 3.0 | 0.00 | 0.00 | 0.00 | 45 | 1012.1 |
| 20260502000023 | 64 | 214 | 2.0 | 4.0 | 0.00 | 0.00 | 0.00 | 45 | 1012.3 |
| 20260501235519 | 64 | 234 | 0.0 | 3.0 | 0.00 | 0.00 | 0.00 | 45 | 1012.2 |
| 20260501235014 | 64 | 201 | 2.0 | 3.0 | 0.00 | 0.00 | 0.00 | 45 | 1012.1 |
| 20260501234510 | 64 | 222 | 3.0 | 4.0 | 0.00 | 0.00 | 0.00 | 44 | 1012.1 |
| 20260501234009 | 64 | 230 | 3.0 | 3.0 | 0.00 | 0.00 | 0.00 | 44 | 1012.3 |
| 20260501233507 | 64 | 299 | 0.0 | 4.0 | 0.00 | 0.00 | 0.00 | 43 | 1012.2 |
| 20260501233002 | 65 | 224 | 0.0 | 3.0 | 0.00 | 0.00 | 0.00 | 42 | 1012.0 |
| 20260501232459 | 65 | 173 | 2.0 | 4.0 | 0.00 | 0.00 | 0.00 | 42 | 1011.9 |
| 20260501231956 | 65 | 272 | 1.0 | 3.0 | 0.00 | 0.00 | 0.00 | 41 | 1011.8 |
| 20260501231455 | 65 | 206 | 3.0 | 3.0 | 0.00 | 0.00 | 0.00 | 41 | 1011.8 |
| 20260501230952 | 65 | 215 | 0.0 | 3.0 | 0.00 | 0.00 | 0.00 | 41 | 1011.6 |
| 20260501230451 | 65 | 1 | 0.0 | 2.0 | 0.00 | 0.00 | 0.00 | 40 | 1011.8 |
| 20260501225948 | 66 | 238 | 1.0 | 2.0 | 0.00 | 0.00 | 0.00 | 40 | 1011.8 |
| 20260501225446 | 66 | 226 | 2.0 | 3.0 | 0.00 | 0.00 | 0.00 | 40 | 1012.2 |
| 20260501224941 | 66 | 89 | 0.0 | 3.0 | 0.00 | 0.00 | 0.00 | 41 | 1011.9 |
| 20260501224439 | 66 | 201 | 1.0 | 8.0 | 0.00 | 0.00 | 0.00 | 40 | 1012.0 |
| 20260501223936 | 66 | 159 | 1.0 | 4.0 | 0.00 | 0.00 | 0.00 | 40 | 1012.2 |
| 20260501223432 | 66 | 299 | 1.0 | 3.0 | 0.00 | 0.00 | 0.00 | 40 | 1012.2 |
| 20260501222927 | 66 | 332 | 0.0 | 2.0 | 0.00 | 0.00 | 0.00 | 40 | 1012.2 |
| 20260501222425 | 66 | 271 | 3.0 | 4.0 | 0.00 | 0.00 | 0.00 | 39 | 1012.2 |
| 20260501221921 | 67 | 260 | 0.0 | 6.0 | 0.00 | 0.00 | 0.00 | 40 | 1012.1 |
| 20260501221419 | 67 | 240 | 1.0 | 2.0 | 0.00 | 0.00 | 0.00 | 38 | 1012.3 |
| 20260501220917 | 67 | 279 | 2.0 | 4.0 | 0.00 | 0.00 | 0.00 | 39 | 1012.5 |
| 20260501220414 | 67 | 294 | 1.0 | 3.0 | 0.00 | 0.00 | 0.00 | 37 | 1012.4 |
| 20260501215909 | 67 | 179 | 2.0 | 3.0 | 0.00 | 0.00 | 0.00 | 37 | 1012.3 |
| 20260501215406 | 67 | 217 | 0.0 | 9.0 | 0.00 | 0.00 | 0.00 | 38 | 1012.2 |
| 20260501214856 | 67 | 205 | 1.0 | 4.0 | 0.00 | 0.00 | 0.00 | 37 | 1012.2 |
| 20260501214352 | 67 | 221 | 0.0 | 3.0 | 0.00 | 0.00 | 0.00 | 38 | 1012.2 |
| 20260501213848 | 67 | 231 | 4.0 | 5.0 | 0.00 | 0.00 | 0.00 | 37 | 1012.2 |
| 20260501213345 | 67 | 290 | 1.0 | 4.0 | 0.00 | 0.00 | 0.00 | 38 | 1012.1 |
| 20260501212840 | 67 | 148 | 0.0 | 3.0 | 0.00 | 0.00 | 0.00 | 37 | 1012.4 |
| 20260501212337 | 67 | 151 | 4.0 | 4.0 | 0.00 | 0.00 | 0.00 | 38 | 1012.4 |
| 20260501211834 | 67 | 143 | 3.0 | 3.0 | 0.00 | 0.00 | 0.00 | 37 | 1012.4 |
| 20260501211332 | 67 | 248 | 0.0 | 3.0 | 0.00 | 0.00 | 0.00 | 37 | 1012.2 |
| 20260501210829 | 67 | 186 | 0.0 | 2.0 | 0.00 | 0.00 | 0.00 | 38 | 1012.5 |
| 20260501210326 | 67 | 237 | 0.0 | 6.0 | 0.00 | 0.00 | 0.00 | 36 | 1012.6 |
| 20260501205822 | 67 | 194 | 2.0 | 4.0 | 0.00 | 0.00 | 0.00 | 36 | 1012.6 |
| 20260501205319 | 67 | 151 | 2.0 | 4.0 | 0.00 | 0.00 | 0.00 | 36 | 1012.7 |
| 20260501204816 | 66 | 49 | 0.0 | 4.0 | 0.00 | 0.00 | 0.00 | 37 | 1012.4 |
| 20260501204312 | 67 | 216 | 5.0 | 5.0 | 0.00 | 0.00 | 0.00 | 35 | 1012.7 |
| 20260501203808 | 67 | 222 | 1.0 | 4.0 | 0.00 | 0.00 | 0.00 | 36 | 1012.7 |
| 20260501203306 | 67 | 211 | 4.0 | 6.0 | 0.00 | 0.00 | 0.00 | 37 | 1012.8 |
| 20260501202803 | 67 | 232 | 0.0 | 4.0 | 0.00 | 0.00 | 0.00 | 37 | 1012.8 |
| 20260501202300 | 66 | 279 | 1.0 | 3.0 | 0.00 | 0.00 | 0.00 | 37 | 1013.0 |
| 20260501201757 | 66 | 257 | 0.0 | 2.0 | 0.00 | 0.00 | 0.00 | 38 | 1012.9 |
| 20260501201253 | 67 | 153 | 2.0 | 3.0 | 0.00 | 0.00 | 0.00 | 36 | 1013.1 |
| 20260501200750 | 68 | 306 | 2.0 | 5.0 | 0.00 | 0.00 | 0.00 | 35 | 1013.1 |
| 20260501200247 | 67 | 197 | 0.0 | 4.0 | 0.00 | 0.00 | 0.00 | 37 | 1013.2 |
| 20260501195745 | 67 | 202 | 3.0 | 4.0 | 0.00 | 0.00 | 0.00 | 36 | 1013.3 |
| 20260501195240 | 67 | 199 | 0.0 | 3.0 | 0.00 | 0.00 | 0.00 | 38 | 1013.4 |
| 20260501194737 | 67 | 251 | 2.0 | 3.0 | 0.00 | 0.00 | 0.00 | 38 | 1013.7 |
| 20260501194233 | 66 | 261 | 2.0 | 4.0 | 0.00 | 0.00 | 0.00 | 36 | 1013.6 |
| 20260501193729 | 66 | 275 | 0.0 | 2.0 | 0.00 | 0.00 | 0.00 | 38 | 1013.6 |
| 20260501193228 | 66 | 243 | 2.0 | 3.0 | 0.00 | 0.00 | 0.00 | 36 | 1013.7 |
| 20260501192725 | 66 | 145 | 3.0 | 4.0 | 0.00 | 0.00 | 0.00 | 37 | 1013.8 |
| 20260501192222 | 67 | 218 | 5.0 | 5.0 | 0.00 | 0.00 | 0.00 | 36 | 1013.8 |
| 20260501191719 | 68 | 269 | 0.0 | 3.0 | 0.00 | 0.00 | 0.00 | 37 | 1014.1 |
| 20260501191216 | 67 | 278 | 2.0 | 3.0 | 0.00 | 0.00 | 0.00 | 36 | 1014.1 |
| 20260501190712 | 66 | 339 | 0.0 | 3.0 | 0.00 | 0.00 | 0.00 | 37 | 1014.3 |
| 20260501190208 | 66 | 240 | 2.0 | 5.0 | 0.00 | 0.00 | 0.00 | 35 | 1014.5 |
| 20260501185704 | 66 | 225 | 6.0 | 6.0 | 0.00 | 0.00 | 0.00 | 35 | 1014.4 |
| 20260501185159 | 66 | 327 | 1.0 | 3.0 | 0.00 | 0.00 | 0.00 | 34 | 1014.5 |
| 20260501184650 | 67 | 132 | 3.0 | 3.0 | 0.00 | 0.00 | 0.00 | 34 | 1014.6 |
| 20260501184145 | 67 | 206 | 3.0 | 3.0 | 0.00 | 0.00 | 0.00 | 35 | 1014.6 |
| 20260501183642 | 66 | 175 | 2.0 | 2.0 | 0.00 | 0.00 | 0.00 | 36 | 1014.7 |
| 20260501183138 | 66 | 209 | 4.0 | 4.0 | 0.00 | 0.00 | 0.00 | 33 | 1014.7 |
| 20260501182635 | 66 | 262 | 2.0 | 6.0 | 0.00 | 0.00 | 0.00 | 34 | 1015.0 |
| 20260501182131 | 67 | 294 | 2.0 | 3.0 | 0.00 | 0.00 | 0.00 | 35 | 1015.0 |
| 20260501181629 | 66 | 217 | 3.0 | 5.0 | 0.00 | 0.00 | 0.00 | 37 | 1015.2 |
| 20260501181125 | 65 | 196 | 3.0 | 3.0 | 0.00 | 0.00 | 0.00 | 36 | 1015.1 |
| 20260501180624 | 65 | 309 | 2.0 | 2.0 | 0.00 | 0.00 | 0.00 | 36 | 1015.0 |
| 20260501180119 | 65 | 292 | 2.0 | 2.0 | 0.00 | 0.00 | 0.00 | 36 | 1014.9 |
| 20260501175617 | 65 | 252 | 4.0 | 5.0 | 0.00 | 0.00 | 0.00 | 35 | 1015.3 |
| 20260501175114 | 64 | 132 | 1.0 | 5.0 | 0.00 | 0.00 | 0.00 | 36 | 1015.3 |
| 20260501174610 | 64 | 211 | 3.0 | 6.0 | 0.00 | 0.00 | 0.00 | 35 | 1015.5 |
| 20260501174108 | 64 | 207 | 0.0 | 3.0 | 0.00 | 0.00 | 0.00 | 37 | 1015.5 |
| 20260501173605 | 64 | 279 | 1.0 | 4.0 | 0.00 | 0.00 | 0.00 | 36 | 1015.4 |
| 20260501173101 | 65 | 221 | 2.0 | 3.0 | 0.00 | 0.00 | 0.00 | 36 | 1015.5 |
| 20260501172557 | 63 | 128 | 0.0 | 2.0 | 0.00 | 0.00 | 0.00 | 40 | 1015.7 |
| 20260501172053 | 62 | 142 | 0.0 | 2.0 | 0.00 | 0.00 | 0.00 | 39 | 1015.9 |
| 20260501171549 | 63 | 211 | 0.0 | 5.0 | 0.00 | 0.00 | 0.00 | 38 | 1015.8 |
| 20260501171046 | 62 | 5 | 1.0 | 3.0 | 0.00 | 0.00 | 0.00 | 38 | 1015.8 |
| 20260501170543 | 62 | 127 | 0.0 | 2.0 | 0.00 | 0.00 | 0.00 | 39 | 1015.8 |
| 20260501170040 | 62 | 151 | 1.0 | 2.0 | 0.00 | 0.00 | 0.00 | 41 | 1015.8 |
| 20260501165538 | 62 | 311 | 2.0 | 3.0 | 0.00 | 0.00 | 0.00 | 41 | 1015.8 |
| 20260501165035 | 62 | 133 | 2.0 | 3.0 | 0.00 | 0.00 | 0.00 | 41 | 1016.2 |
| 20260501164532 | 62 | 247 | 2.0 | 2.0 | 0.00 | 0.00 | 0.00 | 41 | 1016.1 |
| 20260501164029 | 61 | 259 | 1.0 | 4.0 | 0.00 | 0.00 | 0.00 | 40 | 1016.2 |
| 20260501163526 | 60 | 230 | 1.0 | 6.0 | 0.00 | 0.00 | 0.00 | 42 | 1016.4 |